www.pogodaiklimat.ru

Погода и климат >> Архив погоды >> Буркина-Фасо >> Фада-Нгурма


ПОГОДА в Фада-Нгурме

  • Прогноз погоды в Фада-Нгурме
  • Монитор погоды в Фада-Нгурме

АРХИВ ПОГОДЫ в Фада-Нгурме

Время (UTC), дата Ветер
(напр.,м/с)
 
Видим.   Явления Облачность Т
(С)
Тd
(С)
f
(%)
Тe
(С)
Тes
(С)
Комфортность P
(гПа)
Po
(гПа)
Тmin
(С)
Tmax
(С)
R
(мм)
R24
(мм)
S
(см)
00 15.09 Ю 2 10 км {гроза, дождь} 9/0
[Ac As Ci sp]
+25.5 +23.8 90 +35 +35 очень
душно
1010.3 976.0 3
03 15.09 штиль 0 10 км 9/0
[Ac As]
+24.1 +23.5 96 +32 +32 очень
душно
1010.0 975.7
06 15.09 ЮЗ 2 10 км 9/0
[Ac As Ci sp]
+24.0 +23.0 94 +32 +32 очень
душно
1009.9 975.5 +23.8 3
09 15.09 ЮВ 4 10 км 9/8 600 м
[Cb cap Ac trans]
+25.1 +21.7 81 +32 +33 очень
душно
1015.4 980.5
12 15.09 ЮВ 2 10 км гроза, ливневой дождь 10/1 1200 м
[Cb cap Ac As]
+21.3 +20.5 95 +27 +32 душно 1012.7 977.7 13
15 15.09 ЮЗ 1 10 км {гроза, дождь} 10/1 600 м
[Sc Ac As]
+22.5 +21.6 95 +30 +33 очень
душно
1010.5 975.6
18 15.09 ЮВ 2 10 км {дождь} 9/0
[Ac As Ci sp]
+23.6 +22.4 93 +31 +31 очень
душно
1010.0 975.2 +25.6 14
21 15.09 штиль 0 10 км 9/0
[Ac trans Ci sp]
+22.9 +22.2 96 +31 +31 очень
душно
1011.6 976.7
00 16.09 штиль 0 10 км 9/0
[Ac trans Ci sp]
+22.6 +22.0 96 +30 +30 очень
душно
1011.8 976.6
03 16.09 В 2 10 км 9/1 600 м
[Sc Ac As]
+23.0 +22.1 95 +31 +31 очень
душно
1010.5 975.5
06 16.09 СВ 2 10 км 9/0
[Ac trans Ci sp]
+23.0 +22.4 96 +31 +31 очень
душно
1011.7 976.7 +22.4 14
09 16.09 Ю 3 10 км 9/0
[Ac trans Ci sp]
+27.8 +24.4 82 +39 +45 очень
душно
1011.8 977.0
12 16.09 Ю 4 10 км 9/4 600 м
[Cu Sc Ac trans Ci sp]
+31.0 +24.3 68 +43 +48 опасность
перегрева
1010.5 976.0
15 16.09 Ю 3 10 км 9/5 600 м
[Cu Sc Ac trans Ci sp]
+31.6 +23.5 62 +42 +45 опасность
перегрева
1008.6 974.2
18 16.09 Ю 1 10 км 9/1 600 м
[Cb cap Ac trans Ci sp]
+29.7 +25.1 76 +43 +43 опасность
перегрева
1008.6 974.1 +32.4
21 16.09 ЮВ 1 10 км 9/0
[Ac trans Ci sp]
+27.3 +25.2 88 +39 +39 очень
душно
1010.7 976.3
00 17.09 Ю 1 10 км 9/0
[Ac trans Ci sp]
+26.2 +24.2 89 +36 +36 очень
душно
1010.4 976.1
03 17.09 В 1 10 км 9/0
[Cs]
+25.3 +24.0 93 +35 +35 очень
душно
1009.8 975.5
06 17.09 ЮВ 3 10 км гроза, ливневой дождь 9/3 600 м
[Cb cap Ac As]
+21.4 +20.6 95 +27 +27 душно 1012.9 978.1 +21.4 2
09 17.09 ЮЗ 2 10 км гроза без осадков 9/1 1200 м
[Cb cap Ac As]
+22.2 +21.0 93 +29 +33 очень
душно
1011.2 976.5
12 17.09 В 1 10 км {гроза, дождь} 9/0
[Ac As]
+28.9 +23.9 74 +40 +49 очень
душно
1009.8 975.3 5
15 17.09 ЮВ 2 10 км 9/1 600 м
[Cu Sc Ac As Ci sp]
+30.0 +23.6 69 +41 +46 опасность
перегрева
1008.8 974.4
18 17.09 В 1 10 км 9/1 600 м
[Sc Ac trans Ci sp]
+29.0 +25.8 83 +43 +43 опасность
перегрева
1008.7 974.1 +30.7 5
21 17.09 штиль 0 10 км 9/0
[Ac trans Ci sp]
+26.4 +25.0 92 +38 +38 очень
душно
1010.9 976.1
00 18.09 ЮЗ 1 10 км 9/0
[Ac As]
+25.0 +23.6 92 +34 +34 очень
душно
1010.8 976.2
03 18.09 ЮЗ 1 10 км 9/0
[Ac As]
+24.2 +23.2 94 +32 +32 очень
душно
1010.3 975.8
06 18.09 ЮЗ 1 10 км 9/0
[Ac As Ci sp]
+24.2 +23.5 96 +33 +33 очень
душно
1011.1 976.5 +24.1 5
09 18.09 ЮЗ 2 10 км 9/1 600 м
[Sc Ac trans Ci sp]
+27.0 +23.9 83 +37 +42 очень
душно
1012.4 977.8
12 18.09 ЮЗ 1 10 км 9/4 600 м
[Cu Sc Ci sp]
+30.4 +25.1 73 +44 +56 опасность
перегрева
1011.1 976.7
15 18.09 ЮЗ 2 10 км 9/5 600 м
[Cu Sc Ci sp]
+32.3 +23.1 58 +42 +47 опасность
перегрева
1008.9 974.5
18 18.09 штиль 0 10 км 9/1 600 м
[Sc Ac trans Ci sp]
+30.6 +26.1 77 +46 +46 опасность
перегрева
1008.4 974.0 +33.1
21 18.09 Ю 1 10 км 9/0
[Ci sp]
+28.2 +25.7 86 +42 +42 опасность
перегрева
1011.1 976.6
00 19.09 штиль 0 10 км гроза без осадков 9/1 1200 м
[Cb cap Ci sp]
+26.7 +24.7 89 +38 +38 очень
душно
1011.0 976.6
03 19.09 Ю 2 10 км гроза без осадков 9/1 600 м
[Cb cap Ac As]
+26.0 +24.6 92 +37 +37 очень
душно
1010.0 975.8
06 19.09 Ю 1 10 км в посл. час гроза {дождь} 9/0
[Ac As]
+23.1 +21.5 91 +31 +31 очень
душно
1011.0 976.4 +23.0 1
09 19.09 Ю 2 10 км 9/1 600 м
[Sc Ac trans Ci sp]
+25.8 +21.7 78 +33 +38 очень
душно
1013.3 978.7
12 19.09 В 3 10 км 9/0
[Ac As Ci sp]
+27.7 +21.9 71 +36 +43 очень
душно
1011.8 977.3
15 19.09 ЮВ 3 10 км 9/8 600 м
[Sc Ac trans]
+30.4 +25.3 74 +44 +45 опасность
перегрева
1009.7 975.4
18 19.09 В 1 10 км гроза без осадков 10/1 600 м
[Cb cap Ac As]
+23.5 +22.5 94 +31 +31 очень
душно
1010.7 975.7 +31.2 15
21 19.09 З 1 10 км слаб. дождь {гроза} 10/0
[Ac As]
+24.1 +23.2 95 +32 +32 очень
душно
1013.2 978.4
00 20.09 ЮЗ 2 10 км {гроза, дождь} 9/0
[Ac As Ci sp]
+23.8 +22.8 94 +31 +31 очень
душно
1012.3 977.6 15
03 20.09 Ю 2 10 км 9/0
[Ac trans Ci sp]
+23.8 +22.3 91 +31 +31 очень
душно
1011.9 977.3
06 20.09 Ю 3 10 км слаб. дождь 9/3 600 м
[Sc Ac As]
+22.0 +20.5 91 +28 +28 душно 1013.7 978.6 +21.8 18
09 20.09 ЮВ 1 10 км {дождь} 9/1 600 м
[Sc Ac As Ci sp]
+24.9 +22.0 84 +32 +38 очень
душно
1012.0 977.2
12 20.09 ЮВ 3 10 км {дождь} 9/1 600 м
[Sc Ac trans Ci sp]
+31.4 +22.0 57 +40 +49 очень
душно
1010.8 976.3 0.0
15 20.09 ЮВ 3 10 км 9/3 600 м
[Sc Ac trans Ci sp]
+32.3 +23.9 61 +44 +47 опасность
перегрева
1009.3 974.9
18 20.09 Ю 1 10 км 9/0
[Ac trans Ci sp]
+29.5 +26.1 82 +45 +45 опасность
перегрева
1010.7 976.1 +33.1 0.0
21 20.09 Ю 1 10 км 9/0
[Ac trans Ci sp]
+27.4 +25.0 87 +39 +39 очень
душно
1012.3 977.6
00 21.09 Ю 2 10 км 9/0
[Ac As]
+25.6 +23.3 87 +34 +34 очень
душно
1011.4 977.0
03 21.09 штиль 0 10 км 9/0
[Ac As]
+25.8 +23.8 89 +35 +35 очень
душно
1010.2 975.9
06 21.09 Ю 1 10 км 9/0
[Ac trans Ci sp]
+25.2 +24.1 94 +35 +35 очень
душно
1011.0 976.5 +25.2 0.0
09 21.09 Ю 1 10 км 9/0
[Ac As]
+27.4 +24.3 83 +38 +43 очень
душно
1012.6 978.1
12 21.09 Ю 2 10 км 9/1 600 м
[Sc Ac As]
+31.5 +25.3 70 +46 +53 опасность
перегрева
1011.3 977.0
15 21.09 Ю 2 10 км 9/1 600 м
[Cu Sc Ac trans Ci sp]
+33.0 +24.7 62 +46 +51 опасность
перегрева
1009.9 975.7
18 21.09 Ю 1 10 км 9/1 600 м
[Cu Sc Ac trans Ci sp]
+31.0 +25.9 74 +46 +46 опасность
перегрева
1009.2 974.8 +33.5
21 21.09 Ю 1 10 км 9/0
[Ci sp]
+28.0 +25.6 87 +41 +41 опасность
перегрева
1010.8 976.4

 

Местоположение метеостанции Фада-Нгурма (Буркина-Фасо): широта 12.03 долгота 0.37 высота над уровнем моря 309 м.

В архиве по умолчанию представлена погода в Фада-Нгурме за последнюю неделю. Архивные данные за месяц целиком и за предыдущие месяцы, начиная с января 2011 года, Вы можете получить, выбрав интересующий диапазон дат из раскрывающегося списка и нажав кнопку "Ввод!".


*Определитесь, кто Вы:
робот инопланетянин человек

Внимание! Время в таблицах - всемирное. Для получения местного времени необходимо прибавить поправку, которая равна 0 ч.

Смотрите также архив погоды в соседних городах и на ближайших метеорологических станциях:

Погода в Дапаоне (Того) (129 км)
Погода в Манго (Того) (185 км)
Погода в По (Буркина-Фасо) (192 км)
Погода в Навронго (Гана) (204 км)
Погода в Уагадугу (Буркина-Фасо) (209 км)
Погода в Натитингу (Бенин) (220 км)
Погода в Дори (Буркина-Фасо) (227 км)
Погода в Ниамее (Нигер) (253 км)
Погода в Ньамтугу (Того) (264 км)
Погода в Тиллабери (Нигер) (268 км)

Пояснения к столбцам:

Ветер - указаны скорость ветра в м/с - средняя за 10 мин, порывы в срок и между сроками (в фигурных скобках) и направление, откуда дует ветер: С - северный, СВ - северо-восточный, В - восточный, ЮВ - юго-восточный, Ю - южный, ЮЗ - юго-западный, З - западный, СЗ - северо-западный.
Видимость - горизонтальная дальность видимости в метрах или километрах. При видимости от 1 до 10 км при отсутствии осадков обычно наблюдается дымка, при ухудшении видимости до 1 км и менее - туман. В сухую погоду видимость может ухудшаться дымом, пылью или мглою.
Явления - указаны атмосферные явления, наблюдавшиеся в срок или в последний час перед сроком; фигурными скобками обозначены явления, наблюдавшиеся между сроками (за 1-3 часа до срока); квадратными скобками обозначены град или гололедные отложения с указанием их диаметра в мм.
Облачность - указаны через наклонную черту общая и нижняя облачность в баллах и высота нижней границы облаков в метрах; квадратными скобками обозначены формы облаков: Ci - перистые, Cs - перисто-слоистые, Cc - перисто-кучевые, Ac - высококучевые, As - высокослоистые, Sc - слоисто-кучевые, Ns - слоисто-дождевые, Cu - кучевые, Cb - кучево-дождевые. Подробнее классификацию облаков см. в Атласе облаков (PDF).
T - Температура воздуха - температура, измеренная на высоте 2 м над землей.
Td - Температура точки росы - температура, при понижении до которой содержащийся в воздухе водяной пар достигнет насыщения.
f - Относительная влажность воздуха - влажноcть воздуха, измеренная на высоте 2 м над землей.
Te - Эффективная температура - температура, которую ощущает одетый по сезону человек в тени. Характеристика душности погоды. При расчете учитывается влияние влажности воздуха и скорости ветра на теплоощущения человека.
Tes - Эффективная температура на солнце - температура, которую ощущает человек, с поправкой на солнечный нагрев. Характеристика знойности погоды. Зависит от высоты солнца над горизонтом, облачности и скорости ветра. Ночью, в пасмурную погоду, а также при ветре 12 м/с и более поправка равна нулю.
P - Атмосферное давление - приведенное к уровню моря атмосферное давление.
Po - Атмосферное давление - измеренное на уровне метеостанции атмосферное давление.
Tmin - Минимальная температура - минимум температуры воздуха на высоте 2 м над землей.
Tmax - Максимальная температура - максимум температуры воздуха на высоте 2 м над землей.
R - Количество осадков - Количество выпавших осадков за период времени, мм. При наведении курсора мыши на число - период времени, за который выпало указанное количество осадков.
R24 - Количество осадков - Количество выпавших осадков за 24 часа, мм.
S - Снежный покров - Высота снежного покрова, см. При наведении курсора мыши на число - состояние снежного покрова и степень покрытия местности в баллах.